Location: Tierz
(42.1336°N, 0.3549°W)
Time: 17:44:02
(UTC+00:00)

Cosmos 44 - Pass Details

Date: 29 October 2020
Orbit: 577 x 785 km, 65.1° (Epoch: 03 December)

Event Time Altitude Azimuth Distance (km) Brightness Sun altitude
Rises 17:19:06 0° 220° (SW) 2,842 7.5 -4.5°
Reaches altitude 10° 17:21:19 10° 224° (SW) 1,967 6.7 -4.9°
Maximum altitude 17:25:43 63° 306° (NW) 716 3.6 -5.7°
Drops below altitude 10° 17:30:26 10° 27° (NNE) 2,102 5.4 -6.5°
Sets 17:32:52 0° 31° (NNE) 3,057 6.2 -7.0°
